Weather History for Punta Gorda, FL

Change the Weather History Date:

Thursday, December 13, 2012

  Actual Average Record
Temperature  
Mean Temperature 66 °F -  
Max Temperature 73 °F 72 °F 84 °F (2000)
Min Temperature 59 °F 52 °F 41 °F (2010)
Cooling Degree Days 2    
Growing Degree Days 16 (Base 50)    
Moisture  
Dew Point 62 °F    
Average Humidity 82    
Maximum Humidity 100    
Minimum Humidity 57    
Precipitation  
Precipitation 0.01 in - - ()
Sea Level Pressure  
Sea Level Pressure 30.14 in    
Wind  
Wind Speed 10 mph (North)    
Max Wind Speed 16 mph    
Max Gust Speed 23 mph    
Visibility 9 miles    
Events Fog , Rain    
Averages and records for this station are not official NWS values.
T = Trace of Precipitation, MM = Missing Value Source: NWS Daily Summary

Daily Weather History Graph

Daily Weather History Graph

Search for Another Location

Airport:

Trip Planner

Search our weather history database for the weather conditions in past years. The results will help you decide how hot, cold, wet, or windy it might be!

Date:

Astronomy

Dec. 13, 2012 Rise Set
Actual Time 7:08 AM EST 5:36 PM EST
Civil Twilight 6:43 AM EST 6:01 PM EST
Nautical Twilight 6:14 AM EST 6:30 PM EST
Astronomical Twilight 5:45 AM EST 6:59 PM EST
Moon 7:17 AM EST (12/13) 6:15 PM EST (12/13)
Length of Visible Light 11h 18m
Length of Day
10h 27m
Waxing Crescent, 0% of the Moon is Illuminated
Dec 13
Waxing Crescent
Dec 20
First Quarter
Dec 28
Full
Jan 4
Last Quarter
Jan 11
New

Hourly Weather History & Observations

Time (EST) Temp. Dew Point Humidity Pressure Visibility Wind Dir Wind Speed Gust Speed Precip Events Conditions
12:53 AM 73.0 °F 73.0 °F 100% 30.08 in 0.2 mi WSW 4.6 mph - N/A Fog Fog
1:53 AM 73.0 °F 73.0 °F 100% 30.07 in 0.5 mi SW 4.6 mph - N/A Fog Fog
2:16 AM 71.6 °F 71.6 °F 100% 30.07 in 2.0 mi WNW 8.1 mph - 0.01 in Rain Light Rain
2:23 AM 71.6 °F 71.6 °F 100% 30.07 in 5.0 mi NW 11.5 mph - 0.01 in Rain Light Rain
2:48 AM 71.6 °F 69.8 °F 94% 30.07 in 10.0 mi NNW 5.8 mph - 0.01 in   Overcast
2:53 AM 71.1 °F 70.0 °F 96% 30.07 in 9.0 mi NNW 6.9 mph - 0.01 in   Overcast
3:42 AM 69.8 °F 68.0 °F 94% 30.07 in 10.0 mi NNW 12.7 mph - N/A   Overcast
3:49 AM 69.8 °F 68.0 °F 94% 30.07 in 10.0 mi NNW 11.5 mph - N/A   Overcast
3:53 AM 69.1 °F 68.0 °F 96% 30.07 in 10.0 mi North 13.8 mph - N/A   Overcast
4:53 AM 68.0 °F 66.0 °F 93% 30.09 in 10.0 mi North 8.1 mph - N/A   Overcast
5:53 AM 66.9 °F 64.9 °F 93% 30.10 in 10.0 mi North 10.4 mph - N/A   Overcast
6:53 AM 66.9 °F 64.9 °F 93% 30.12 in 10.0 mi NNW 9.2 mph - N/A   Overcast
7:53 AM 66.9 °F 64.0 °F 90% 30.14 in 10.0 mi North 11.5 mph - N/A   Overcast
8:00 AM 66.2 °F 62.6 °F 88% 30.14 in 10.0 mi North 16.1 mph 20.7 mph N/A   Overcast
8:41 AM 66.2 °F 62.6 °F 88% 30.16 in 10.0 mi North 15.0 mph 21.9 mph N/A   Overcast
8:53 AM 66.0 °F 62.1 °F 87% 30.17 in 7.0 mi North 12.7 mph 20.7 mph N/A   Overcast
9:39 AM 68.0 °F 60.8 °F 78% 30.17 in 10.0 mi NNE 12.7 mph - N/A   Mostly Cloudy
9:48 AM 69.8 °F 60.8 °F 73% 30.17 in 10.0 mi North 15.0 mph 23.0 mph N/A   Scattered Clouds
9:53 AM 69.1 °F 60.1 °F 73% 30.17 in 10.0 mi NNE 12.7 mph - N/A   Mostly Cloudy
10:00 AM 69.8 °F 60.8 °F 73% 30.17 in 10.0 mi North 15.0 mph - N/A   Mostly Cloudy
10:53 AM 70.0 °F 60.1 °F 71% 30.18 in 10.0 mi North 11.5 mph - N/A   Mostly Cloudy
11:00 AM 71.6 °F 60.8 °F 69% 30.18 in 10.0 mi North 10.4 mph - N/A   Mostly Cloudy
11:53 AM 71.1 °F 59.0 °F 66% 30.17 in 10.0 mi North 12.7 mph - N/A   Mostly Cloudy
12:53 PM 72.0 °F 59.0 °F 64% 30.16 in 10.0 mi NNE 12.7 mph - N/A   Scattered Clouds
1:28 PM 73.4 °F 59.0 °F 61% 30.14 in 10.0 mi NNE 10.4 mph - N/A   Mostly Cloudy
1:53 PM 73.9 °F 57.9 °F 57% 30.13 in 10.0 mi NNE 15.0 mph - N/A   Scattered Clouds
2:53 PM 72.0 °F 57.0 °F 59% 30.12 in 10.0 mi NNE 10.4 mph - N/A   Partly Cloudy
3:53 PM 71.1 °F 57.9 °F 63% 30.12 in 10.0 mi NE 13.8 mph 19.6 mph N/A   Scattered Clouds
4:53 PM 69.1 °F 57.0 °F 65% 30.12 in 10.0 mi NE 10.4 mph - N/A   Partly Cloudy
8:23 PM 62.6 °F 57.2 °F 82% 30.17 in 10.0 mi NE 12.7 mph - N/A   Mostly Cloudy
8:40 PM 60.8 °F 57.2 °F 88% 30.18 in 10.0 mi NE 10.4 mph - N/A   Scattered Clouds
8:53 PM 61.0 °F 57.0 °F 87% 30.19 in 10.0 mi NE 10.4 mph - N/A   Scattered Clouds
9:13 PM 60.8 °F 57.2 °F 88% 30.19 in 10.0 mi NE 8.1 mph - N/A   Mostly Cloudy
9:51 PM 62.6 °F 55.4 °F 77% 30.19 in 10.0 mi NE 9.2 mph - N/A   Overcast
9:53 PM 62.1 °F 55.9 °F 80% 30.19 in 10.0 mi NE 10.4 mph - N/A   Overcast
10:22 PM 62.6 °F 55.4 °F 77% 30.19 in 10.0 mi NE 10.4 mph - N/A   Overcast
10:53 PM 61.0 °F 55.9 °F 83% 30.19 in 10.0 mi NNE 10.4 mph - N/A   Overcast
11:53 PM 59.0 °F 55.0 °F 87% 30.18 in 10.0 mi NNE 9.2 mph - N/A   Mostly Cloudy